Location: Elstree
(51.6403°N, 0.2969°W)
Time: 14:50:45
(UTC+00:00)

USA 186 - Pass Details

Date: 03 March 2021
Orbit: 261 x 430 km, 96.9° (Epoch: 11 April)

Event Time Altitude Azimuth Distance (km) Brightness Sun altitude
Exits shadow 18:28:29 11° 80° (E) 1,109 3.2 -7.5°
Maximum altitude 18:29:10 12° 63° (ENE) 1,073 3.3 -7.6°
Drops below altitude 10° 18:30:10 10° 39° (NE) 1,179 3.7 -7.8°
Sets 18:32:56 0° 5° (N) 2,058 5.2 -8.2°
